Regional Weather Roundup
Issued by NWS Lake Charles, LA

Home | Current Version | Previous Version | Text Only | Print | Product List | Glossary On
Versions: 1 2 3 4 5 6 7 8 9 10 11 12 13 14 15 16 17 18 19 20 21 22 23 24 25 26 27 28 29 30 31 32 33 34 35 36 37 38 39 40 41 42 43 44 45 46 47 48 49 50
000
ASUS44 KLCH 011610
RWRLCH
RWRLCH
REGIONAL WEATHER ROUNDUP
NATIONAL WEATHER SERVICE LAKE CHARLES LA
1100 AM CDT FRI AUG 01 2014

Note: "fair" indicates few or no clouds below 12,000 feet with no
significant weather and/or obstructions to visibility.


ACROSS SOUTHEAST TEXAS

CITY           SKY/WX    TMP DP  RH WIND       PRES   REMARKS
BEAUMONT       PTSUNNY   83  75  77 W6        29.98R
BEAUMONT CITY  CLOUDY    81  75  83 NW5       29.98S
ORANGE         CLOUDY    81  80  95 W3        30.00R
JASPER         CLOUDY    77  73  87 W3        30.01S
$$

ACROSS CENTRAL LOUISIANA

CITY           SKY/WX    TMP DP  RH WIND       PRES   REMARKS
LEESVILLE      CLOUDY    78  73  84 W8        29.98R
FULLERTON      CLOUDY    79  75  87 VRB5      29.95S
ALEXANDRIA INT CLOUDY    75  73  93 SE8       29.96S
ESLER FIELD    LGT RAIN  73  70  90 NE7       29.99R FOG
DERIDDER       CLOUDY    78  74  90 CALM      30.00R FOG
OAKDALE        CLOUDY    77  74  90 S5        29.98F
OPELOUSAS      LGT RAIN  75  74  98 S5        30.00S
$$

ACROSS SOUTHWEST AND SOUTH CENTRAL LOUISIANA

CITY           SKY/WX    TMP DP  RH WIND       PRES   REMARKS
SULPHUR        CLOUDY    80  76  87 SW6       29.99S
LAKE CHARLES   CLOUDY    78  75  90 SW5       29.98S
CHENNAULT INT  MOSUNNY   79  73  83 S7        29.99S
CAMERON PHI    SUNNY     82  75  78 W8G17     29.99S
DEQUINCY       CLOUDY    79  75  87 W6        29.98S
JENNINGS       RAIN      77  74  91 CALM      29.99S
LAFAYETTE      RAIN      79  75  87 SE5       30.00S
NEW IBERIA     CLOUDY    80  76  87 SE7       30.01R
ABBEVILLE      CLOUDY    80  76  85 SE5       30.00R
PATTERSON      CLOUDY    81  75  83 SE3       30.04S
SALT POINT       N/A     83  77  82 SE3       29.99S
$$

SELECTED SITES ACROSS THE REGION

CITY           SKY/WX    TMP DP  RH WIND       PRES   REMARKS
HOUSTON BUSH   PTSUNNY   81  72  74 W6        29.99S
HOUSTON HOBBY  MOSUNNY   83  74  74 VRB7      29.98S
GALVESTON      MOSUNNY   85  75  72 W7        29.99S
COLLEGE STAT   CLOUDY    75  69  81 N8        30.02R
CONROE         CLOUDY    78  70  76 NW7       30.01R
HUNTSVILLE     CLOUDY    75  70  84 NW7       30.02R
LUFKIN         CLOUDY    77  71  82 NW6       30.00R
SHREVEPORT     DRZL/FOG  70  68  93 N7        30.00R VSB 1
MONROE         RAIN      68  66  94 E9G16     30.03R VSB 1
NATCHEZ MS     CLOUDY    70  66  88 E6        30.04R
BATON ROUGE    LGT RAIN  76  72  87 E7        30.01S
N.O. INTL ARPT CLOUDY    86  69  56 S9        30.01S
SLIDELL        CLOUDY    82  68  62 VRB3      30.02S
$$

MARINE REPORTS

STATION/POSITION TIME  TEMP    WIND        PRES    VSBY  WAVE
                       AIR SEA DIR/SP/G                  HT/PER
                 (UTC) (F)     (DEG/KT/KT) (MB)    (MI)  (FT/S)
BUOY 30 S HIGH I NOT AVBL
SEA RIM ST PARK  1600   82     270/  4/  6 1015.7R
PORT ARTHUR      1600      86  270/  7/  9 1015.2R
SABINE PASS N    1600   83 86  290/  5/  9 1015.4R
TEXAS POINT      1600   81 85  230/  6/  9 1015.6R
CALCASIEU PASS   1600   80 85  260/  8/ 13 1016.4S
LK CHARLES BEACH 1600   78 83              1016.0S
MARSH ISLAND     1500   83     190/  6/ 10   N/A
FRESH WATER LOCK 1600   83 86  150/ 10/ 13 1015.3S
AMERADA PASS     1600   82 83  130/  3/  5 1015.8F
$$



USA.gov is the U.S. government's official web portal to all federal, state and local government web resources and services.